When you browse on this site, cookies collect data to enhance your experience and personalize the content and advertising you see.
Visit our Privacy Policy to learn more. By continuing to use the site, you agree to this use of cookies and data.
  • In Hungary
  • List of Countries
  • For 7 days
  • Water Temperature
  • Satellite Maps
  • Weather Map
  • News
  • Weather Widgets
  • user-avatar
    Login

    Hourly Weather Huaiyin

    Today, 17 December, Monday

    Time Temperature Precipitation Wind Pressure Humidity
    00:00 +3°C° 0 mm 3 mps 766 mmHg 64%
    01:00 +3°C° 0 mm 3 mps 766 mmHg 66%
    02:00 +3°C° 0 mm 3 mps 766 mmHg 67%
    03:00 +3°C° 0 mm 2 mps 766 mmHg 68%
    04:00 +3°C° 0 mm 2 mps 766 mmHg 69%
    05:00 +3°C° 0 mm 2 mps 766 mmHg 70%
    06:00 +3°C° 0 mm 2 mps 766 mmHg 71%
    07:00 +3°C° 0 mm 2 mps 767 mmHg 72%
    08:00 +3°C° 0 mm 2 mps 767 mmHg 73%
    09:00 +5°C° 0 mm 2 mps 767 mmHg 67%
    10:00 +6°C° 0 mm 2 mps 767 mmHg 60%
    11:00 +8°C° 0 mm 2 mps 768 mmHg 53%
    12:00 +9°C° 0 mm 2 mps 767 mmHg 49%
    13:00 +10°C° 0 mm 2 mps 767 mmHg 45%
    14:00 +10°C° 0 mm 3 mps 767 mmHg 41%
    15:00 +9°C° 0 mm 2 mps 767 mmHg 43%
    16:00 +8°C° 0 mm 2 mps 767 mmHg 46%
    17:00 +9°C° 0 mm 1 mps 767 mmHg 49%
    18:00 +8°C° 0 mm 1 mps 767 mmHg 50%
    19:00 +7°C° 0 mm 1 mps 767 mmHg 51%
    20:00 +7°C° 0 mm 1 mps 767 mmHg 52%
    21:00 +7°C° 0 mm 1 mps 767 mmHg 54%
    22:00 +6°C° 0 mm 1 mps 767 mmHg 55%
    23:00 +6°C° 0 mm 1 mps 767 mmHg 56%

    Tomorrow, 18 December, Tuesday

    Time Temperature Precipitation Wind Pressure Humidity
    00:00 +6°C° 0 mm 1 mps 767 mmHg 57%
    01:00 +4°C° 0 mm 2 mps 767 mmHg 58%
    02:00 +4°C° 0 mm 2 mps 767 mmHg 59%
    03:00 +4°C° 0 mm 2 mps 767 mmHg 60%
    04:00 +4°C° 0 mm 2 mps 766 mmHg 61%
    05:00 +4°C° 0 mm 2 mps 766 mmHg 62%
    06:00 +4°C° 0 mm 2 mps 766 mmHg 63%
    07:00 +4°C° 0 mm 2 mps 766 mmHg 64%
    08:00 +4°C° 0 mm 2 mps 766 mmHg 65%
    09:00 +5°C° 0 mm 3 mps 766 mmHg 60%
    10:00 +8°C° 0 mm 3 mps 766 mmHg 55%
    11:00 +10°C° 0 mm 4 mps 766 mmHg 50%
    12:00 +11°C° 0 mm 4 mps 766 mmHg 49%
    13:00 +12°C° 0 mm 4 mps 765 mmHg 48%
    14:00 +13°C° 0 mm 4 mps 765 mmHg 46%
    15:00 +12°C° 0 mm 3 mps 765 mmHg 51%
    16:00 +12°C° 0 mm 2 mps 765 mmHg 56%
    17:00 +11°C° 0 mm 1 mps 765 mmHg 60%
    18:00 +10°C° 0 mm 1 mps 765 mmHg 63%
    19:00 +10°C° 0 mm 1 mps 765 mmHg 65%
    20:00 +8°C° 0 mm 0 mps 766 mmHg 67%
    21:00 +8°C° 0 mm 0 mps 766 mmHg 68%
    22:00 +7°C° 0 mm 0 mps 766 mmHg 69%
    23:00 +7°C° 0 mm 0 mps 766 mmHg 70%

    Day after tomorrow, 19 December, Wednesday

    Time Temperature Precipitation Wind Pressure Humidity
    00:00 +8°C° 0 mm 1 mps 766 mmHg 71%
    01:00 +8°C° 0 mm 1 mps 766 mmHg 73%
    02:00 +7°C° 0 mm 1 mps 766 mmHg 74%
    03:00 +7°C° 0 mm 1 mps 766 mmHg 74%
    04:00 +7°C° 0 mm 1 mps 765 mmHg 75%
    05:00 +7°C° 0 mm 1 mps 765 mmHg 76%
    06:00 +6°C° 0 mm 2 mps 765 mmHg 75%
    07:00 +6°C° 0 mm 2 mps 766 mmHg 75%
    08:00 +7°C° 0 mm 2 mps 766 mmHg 74%
    09:00 +8°C° 0 mm 2 mps 766 mmHg 69%
    10:00 +9°C° 0 mm 2 mps 766 mmHg 64%
    11:00 +10°C° 0 mm 2 mps 767 mmHg 59%
    12:00 +12°C° 0 mm 2 mps 766 mmHg 58%
    13:00 +12°C° 0 mm 2 mps 765 mmHg 56%
    14:00 +13°C° 0 mm 1 mps 765 mmHg 54%
    15:00 +12°C° 0 mm 1 mps 765 mmHg 58%
    16:00 +12°C° 0 mm 2 mps 764 mmHg 61%
    17:00 +10°C° 0 mm 2 mps 764 mmHg 65%
    18:00 +10°C° 0 mm 2 mps 765 mmHg 67%
    19:00 +9°C° 0 mm 2 mps 765 mmHg 69%
    20:00 +9°C° 0 mm 2 mps 765 mmHg 70%
    21:00 +9°C° 0.1 mm 2 mps 765 mmHg 73%
    22:00 +9°C° 0.1 mm 2 mps 765 mmHg 76%
    23:00 +8°C° 0.1 mm 2 mps 765 mmHg 79%

    20 December, Thursday

    Time Temperature Precipitation Wind Pressure Humidity
    00:00 +8°C° 0.1 mm 2 mps 765 mmHg 81%
    01:00 +8°C° 0.1 mm 2 mps 765 mmHg 84%
    02:00 +8°C° 0.1 mm 2 mps 765 mmHg 86%
    03:00 +9°C° 0.1 mm 1 mps 764 mmHg 88%
    04:00 +8°C° 0.1 mm 1 mps 764 mmHg 90%
    05:00 +8°C° 0.1 mm 1 mps 764 mmHg 91%
    06:00 +8°C° 0 mm 1 mps 764 mmHg 91%
    07:00 +9°C° 0 mm 1 mps 764 mmHg 90%
    08:00 +9°C° 0 mm 1 mps 764 mmHg 90%
    09:00 +10°C° 0 mm 1 mps 764 mmHg 83%
    10:00 +11°C° 0 mm 1 mps 764 mmHg 77%
    11:00 +13°C° 0 mm 2 mps 764 mmHg 70%
    12:00 +13°C° 0 mm 2 mps 763 mmHg 70%
    13:00 +13°C° 0 mm 2 mps 763 mmHg 69%
    14:00 +14°C° 0 mm 2 mps 762 mmHg 69%
    15:00 +13°C° 0 mm 2 mps 762 mmHg 73%
    16:00 +13°C° 0 mm 2 mps 762 mmHg 77%
    17:00 +12°C° 0 mm 2 mps 762 mmHg 81%
    18:00 +12°C° 0 mm 2 mps 762 mmHg 83%
    19:00 +12°C° 0 mm 2 mps 762 mmHg 84%
    20:00 +12°C° 0 mm 2 mps 762 mmHg 86%
    21:00 +12°C° 0 mm 2 mps 762 mmHg 88%
    22:00 +10°C° 0 mm 2 mps 762 mmHg 91%
    23:00 +10°C° 0 mm 2 mps 762 mmHg 93%

    21 December, Friday

    Time Temperature Precipitation Wind Pressure Humidity
    00:00 +10°C° 0 mm 3 mps 762 mmHg 93%
    01:00 +10°C° 0 mm 3 mps 762 mmHg 93%
    02:00 +10°C° 0 mm 3 mps 762 mmHg 93%
    03:00 +10°C° 0 mm 3 mps 762 mmHg 92%
    04:00 +10°C° 0 mm 3 mps 762 mmHg 91%
    05:00 +10°C° 0 mm 4 mps 762 mmHg 91%
    06:00 +10°C° 0 mm 3 mps 763 mmHg 89%
    07:00 +10°C° 0 mm 3 mps 763 mmHg 87%
    08:00 +10°C° 0 mm 3 mps 764 mmHg 85%
    09:00 +11°C° 0 mm 3 mps 764 mmHg 79%
    10:00 +12°C° 0 mm 4 mps 764 mmHg 73%
    11:00 +13°C° 0 mm 4 mps 764 mmHg 66%
    12:00 +14°C° 0 mm 4 mps 764 mmHg 64%
    13:00 +14°C° 0 mm 4 mps 764 mmHg 61%
    14:00 +15°C° 0 mm 4 mps 763 mmHg 59%
    15:00 +14°C° 0 mm 3 mps 764 mmHg 62%
    16:00 +13°C° 0 mm 3 mps 764 mmHg 65%
    17:00 +13°C° 0 mm 2 mps 764 mmHg 68%
    18:00 +13°C° 0 mm 2 mps 765 mmHg 71%
    19:00 +12°C° 0 mm 2 mps 765 mmHg 73%
    20:00 +12°C° 0 mm 2 mps 766 mmHg 76%
    21:00 +10°C° 0 mm 3 mps 766 mmHg 75%
    22:00 +10°C° 0 mm 3 mps 766 mmHg 73%
    23:00 +9°C° 0 mm 3 mps 766 mmHg 72%

    22 December, Saturday

    Time Temperature Precipitation Wind Pressure Humidity
    00:00 +9°C° 0 mm 3 mps 766 mmHg 68%
    01:00 +9°C° 0 mm 3 mps 766 mmHg 65%
    02:00 +9°C° 0 mm 2 mps 767 mmHg 61%
    03:00 +8°C° 0 mm 3 mps 767 mmHg 59%
    04:00 +8°C° 0 mm 3 mps 767 mmHg 57%
    05:00 +8°C° 0 mm 3 mps 767 mmHg 55%
    06:00 +8°C° 0.1 mm 3 mps 768 mmHg 55%
    07:00 +7°C° 0.1 mm 3 mps 768 mmHg 56%
    08:00 +7°C° 0.1 mm 2 mps 769 mmHg 56%
    09:00 +8°C° 0 mm 3 mps 769 mmHg 50%
    10:00 +9°C° 0 mm 3 mps 769 mmHg 44%
    11:00 +10°C° 0 mm 4 mps 770 mmHg 38%
    12:00 +11°C° 0 mm 4 mps 769 mmHg 34%
    13:00 +11°C° 0 mm 4 mps 769 mmHg 31%
    14:00 +12°C° 0 mm 5 mps 769 mmHg 28%
    15:00 +10°C° 0 mm 5 mps 770 mmHg 31%
    16:00 +9°C° 0 mm 5 mps 770 mmHg 34%
    17:00 +8°C° 0 mm 5 mps 771 mmHg 37%
    18:00 +7°C° 0 mm 5 mps 772 mmHg 39%
    19:00 +6°C° 0 mm 5 mps 772 mmHg 40%
    20:00 +4°C° 0 mm 6 mps 773 mmHg 42%
    21:00 +3°C° 0 mm 6 mps 774 mmHg 41%
    22:00 +2°C° 0 mm 6 mps 774 mmHg 40%
    23:00 +1°C° 0 mm 6 mps 774 mmHg 39%
    Show more